Regional Weather Roundup
Issued by NWS Upton, NY

Home | Current Version | Previous Version | Text Only | Print | Product List | Glossary On
Versions: 1 2 3 4 5 6 7 8 9 10 11 12 13 14 15 16 17 18 19 20 21 22 23 24 25 26 27 28 29 30 31 32 33 34 35 36 37 38 39 40 41 42 43 44 45 46 47 48 49 50
000
ASUS41 KOKX 280509
RWROKX

REGIONAL WEATHER ROUNDUP
NATIONAL WEATHER SERVICE NEW YORK NY
100 AM EDT WED JUN 28 2017

NOTE: "FAIR" INDICATES FEW OR NO CLOUDS BELOW 12,000 FEET WITH NO
SIGNIFICANT WEATHER AND/OR OBSTRUCTIONS TO VISIBILITY.

NYZ071-072-176-178-NJZ106-104-280600-
NEW YORK CITY METRO AREA

CITY           SKY/WX    TMP DP  RH WIND       PRES   REMARKS
Central Park   CLEAR     67  49  52 VRB6      30.05R
Bronx Bot Gard   N/A     64  48  55 W5        30.03R
LaGuardia APRT PTCLDY    68  52  56 NW15      30.02R
Kennedy INTL   PTCLDY    68  51  54 NW10      30.03R
Breezy Point     N/A     64 N/A N/A NW6         N/A
Newark/Liberty PTCLDY    65  52  62 NW6       30.03R
Teterboro      CLEAR     63  50  62 NW8       30.02R
$$

NYZ177-179-078>081-280600-
LONG ISLAND NEW YORK

CITY           SKY/WX    TMP DP  RH WIND       PRES   REMARKS
Jones Beach      N/A     64 N/A N/A N5          N/A
Matinecock PT  NOT AVBL
Farmingdale    NOT AVBL
MacArthur/ISP  MOCLDY    63  55  75 N6        30.00F
Shirley        PTCLDY    58  56  93 CALM      30.01S
Mt Sinai Harb    N/A    N/A N/A N/A S1          N/A
Westhampton    MOCLDY    53  50  89 CALM      30.02F
East Hampton   FAIR      59  52  78 CALM      30.00S
Montauk          N/A     65  56  72 VRB5      30.01S
$$

NYZ052-065-067-280600-
HUDSON VALLEY

CITY           SKY/WX    TMP DP  RH WIND       PRES   REMARKS
White Plains   CLEAR     58  51  78 CALM      30.02R
Larchmont Harb   N/A     63 N/A N/A NW2         N/A
Croton O-T Hud   N/A     59 N/A N/A NE1         N/A
Newburgh       CLEAR     55  52  88 W6        30.03S
Montgomery     CLEAR     52  49  89 SW5       30.03R
Poughkeepsie   CLEAR     53  51  93 CALM      30.01R
Albany         MOCLDY    55  51  86 CALM      30.00S
$$

NJZ001-105-106-008-010-013-015-019>022-104-280600-
NEW JERSEY

CITY           SKY/WX    TMP DP  RH WIND       PRES   REMARKS
Newark/Liberty PTCLDY    65  52  62 NW6       30.03R
Teterboro      CLEAR     63  50  62 NW8       30.02R
Caldwell       CLEAR     60  53  77 CALM      30.04R
Somerville     CLEAR     55  54  96 CALM      30.03R
Linden         FAIR      62  52  69 CALM      30.04R
Perth Amboy      N/A     64 N/A N/A NW6         N/A
Sussex         CLEAR     52  52 100 CALM      30.05R
Andover          N/A     53  52  96 CALM      30.05R
Trenton        PTCLDY    63  49  60 NW3       30.05R
Millville      PTCLDY    62  53  72 W7        30.07R
Atlantic City  NOT AVBL
Wrightstown    CLEAR     64  49  59 NW6       30.03R
Toms River     CLEAR     62  50  64 NW7       30.05R
Belmar         CLEAR     61  53  75 W6        30.04S
$$

PAZ047>061-062-071-280600-
EASTERN PENNSYLVANIA

CITY           SKY/WX    TMP DP  RH WIND       PRES   REMARKS
Philadelphia   PTCLDY    67  47  48 NW8       30.07R
Allentown      CLEAR     57  48  72 SW7       30.06R
Scranton       CLEAR     58  50  75 SW6       30.06R
$$

CTZ002-004>006-009-010-012-RIZ004-006-007-MAZ004-011-015-280600-
SOUTHERN NEW ENGLAND
 IN CT

CITY           SKY/WX    TMP DP  RH WIND       PRES   REMARKS
Bradley INTL   PTCLDY    55  51  86 SW3       30.02R
Hartford       CLEAR     57  56  96 CALM      30.01R
Danbury        NOT AVBL
Wtrbury/Oxford CLEAR     52  45  76 CALM      30.02S
Bridgeport     CLEAR     63  51  65 CALM      30.01S
Meriden        CLEAR     52  51  97 CALM      30.01S
New Haven      CLEAR     58  50  75 CALM      30.01S
Chester        FAIR      57  50  77 CALM      30.01S
Groton         CLOUDY    58  55  90 CALM      30.00S
Wilimantic     FOG       54  53  97 N3        30.02S VSB 1/4

 IN RI

CITY           SKY/WX    TMP DP  RH WIND       PRES   REMARKS
Providence     CLOUDY    60  53  77 NW5       30.00S
Block Island   CLOUDY    62  55  77 NW7       30.00S
Westerly       CLOUDY    61  55  81 NW3       30.01R
 IN MA

CITY           SKY/WX    TMP DP  RH WIND       PRES   REMARKS
Boston         CLOUDY    61  53  75 W7        29.98S
Worcester      CLEAR     53  49  86 W8        30.00S
Westfield      CLEAR     51  51 100 CALM        N/A
Provincetown   MOCLDY    60  54  80 W9        29.98S
Nantucket      PTCLDY    63  63 100 W3        29.97F
$$

ANZ330-335-338-340-345-350-353-355-280600-
COASTAL MARINE OBSERVATIONS


STATION/POSITION TIME  SKY/WX   TEMP    WIND        PRES    VSBY  WAVE
                                AIR SEA DIR/SP/G                  HT/PER
                 (UTC)          (F)     (DEG/KT/KT) (MB)    (MI)  (FT/S)
NY HARB ENTRANCE 0350            69 69  240/  6/  6 1015.9          1/ 7
20 S FIRE ISLAND 0450            70 70  290/  8/ 10 1015.3          2/ 4
GREAT SOUTH BAY  0415            68 75   10/ 10/ 10   N/A
23 SSW MONTAUK P 0350            67 65              1015.9          2/ 6
15 E BARNEGAT LI 0430               66                N/A           2/ 3
HUDSON CANYON    0350            70 68  250/ 12/ 14 1015.1          2/ 8
KINGS POINT      0430            66 66   30/  2/  3 1016.4
EXECUTION ROCKS  0445            65     330/  2/  4   N/A
CENTRAL LI SOUND NOT AVBL
EASTERN LI SOUND NOT AVBL
ROBBINS REEF     0436                   320/  8/ 10 1017.2
$$


>>>>>>>>>>>>>>>>>>>>>>>>>>>> KEY <<<<<<<<<<<<<<<<<<<<<<<<<<<
>                                                          <
>     SKY/WX - Sky Condition/Present Weather               <
>     TMP    - Temperature in Fahrenheit                   <
>     DP     - Dew Point in Fahrenheit                     <
>     RH     - Relative Humidity in Percent                <
>     WIND   - Direction (from) and Speed in MPH           <
>     PRES   - Mean Sea Level Pressure (inches of Hg)      <
>     WCI    - Wind Chill Index                            <
>     VSB    - VISIBILITY IN MILES                         <
>     HX     - HEAT INDEX                                  <
>     TC     - TEMPERATURE IN CELSIUS                      <
>     VRB    - VARIABLE WIND DIRECTION                     <
>                                                          <
>>>>>>>>>>>>>>>>>>>>>>>>>>>> KEY <<<<<<<<<<<<<<<<<<<<<<<<<<<



USA.gov is the U.S. government's official web portal to all federal, state and local government web resources and services.